[[{"header":{"parameterUnit":"m.s-1","parameterCategory":1,"la1":30.2992,"la2":30.254,"lo1":-89.0895,"lo2":-89.0443,"dy":0.0025,"dx":0.0025,"nx":19,"ny":19,"refTime":"2026-05-03T03:00:00:Z","depth":0,"parameterNumber":2,"parameterNumberName":"U-component_of_WINDS"},"data":[0,0,0,-0.6594,-0.6595,-0.6612,-0.6612,-0.6635,-0.6636,0,0,0,0,0,0,0,0,0,0,0,-0.659,-0.659,-0.6594,-0.6595,-0.6612,-0.6612,-0.6635,-0.6636,0,0,0,0,0,0,0,0,0,0,0,-0.659,-0.659,-0.659,-0.6595,-0.6612,-0.6612,-0.6635,-0.6622,0,0,0,0,0,0,0,0,0,0,-0.6605,-0.6602,-0.659,-0.659,-0.6595,-0.6612,-0.6612,-0.6621,-0.6623,-0.6629,0,-0.6633,0,-0.6635,-0.6637,-0.6637,0,0,0,-0.6595,-0.66,-0.6604,-0.659,-0.6595,-0.6612,-0.6604,-0.6622,-0.6624,-0.6631,-0.6633,-0.6634,-0.6635,-0.6637,-0.6638,-0.667,-0.667,0,0,-0.6594,-0.6593,-0.6603,-0.6605,-0.6602,-0.6603,-0.6605,-0.6623,-0.6626,-0.6633,-0.6635,-0.6635,-0.6638,-0.6638,-0.667,-0.667,0,0,0,-0.6591,-0.6593,-0.6596,-0.6605,-0.6607,-0.6604,-0.6605,-0.6626,-0.6627,-0.6635,-0.6636,-0.6638,-0.6638,-0.6669,-0.667,-0.6678,0,0,0,-0.6591,-0.6591,-0.6596,-0.6596,-0.6607,-0.6616,-0.6607,-0.6625,-0.6628,-0.6636,-0.6638,-0.6638,-0.6669,-0.667,-0.6677,-0.6682,0,0,0,-0.6589,-0.6591,-0.6594,-0.6596,-0.6603,-0.6616,-0.6618,-0.6626,-0.6628,-0.6637,-0.6638,-0.6669,-0.667,-0.6677,-0.6681,-0.6691,0,0,0,-0.6587,-0.66,-0.6594,-0.6609,-0.6603,-0.6621,-0.6618,-0.6632,-0.664,-0.6638,-0.6669,-0.667,-0.6676,-0.668,-0.669,-0.67,-0.6703,0,0,-0.6603,-0.6602,-0.6611,-0.6606,-0.6625,-0.6618,-0.6638,-0.6647,-0.6648,-0.6663,-0.6664,-0.6677,-0.6681,-0.6691,-0.6723,-0.6726,0,0,0,-0.6616,-0.6623,-0.6628,-0.6636,-0.6643,-0.665,-0.6655,-0.6658,-0.6671,-0.6655,-0.6683,-0.6685,-0.6691,-0.6696,-0.6698,-0.6704,-0.6672,-0.6671,-0.6671,-0.664,-0.6641,-0.6656,-0.666,-0.6668,-0.6674,-0.6681,-0.6687,-0.6685,-0.6692,-0.6696,-0.6715,-0.6721,-0.6722,-0.6728,-0.67,-0.67,-0.6701,-0.6701,-0.6665,-0.6675,-0.6673,-0.6687,-0.6689,-0.6701,-0.6708,-0.6707,-0.6719,-0.6712,-0.6717,-0.6709,-0.6726,-0.6731,-0.6701,-0.6701,-0.6701,-0.6701,-0.6701,-0.6681,-0.6686,-0.669,-0.6703,-0.6713,-0.6716,-0.6728,-0.6729,-0.673,-0.6735,-0.674,-0.674,-0.6741,-0.6737,-0.6737,-0.6737,-0.6737,-0.6737,-0.6737,-0.6697,-0.6701,-0.6711,-0.672,-0.6726,-0.6734,-0.674,-0.6746,-0.6754,-0.6753,-0.6753,-0.6752,-0.6726,-0.6721,-0.6738,-0.6738,-0.6738,-0.6738,-0.6738,-0.6724,-0.6718,-0.6733,-0.6739,-0.675,-0.6761,-0.6761,-0.6774,-0.678,-0.6786,-0.6784,-0.6764,-0.6763,-0.6761,-0.6756,-0.6782,-0.6782,-0.6782,-0.6782,-0.6738,-0.6738,-0.6754,-0.6764,-0.6773,-0.6776,-0.6794,-0.68,-0.6805,-0.6809,-0.6805,-0.6799,-0.6796,-0.6797,-0.6794,-0.679,-0.6823,-0.6824,-0.6824,-0.6756,-0.6756,-0.6771,-0.6775,-0.6784,-0.6792,-0.681,-0.6823,-0.6827,-0.6825,-0.6812,-0.681,-0.68,-0.6796,-0.6794,-0.679,-0.6782,0,0]},{"header":{"parameterUnit":"m.s-1","parameterCategory":1,"la1":30.2992,"la2":30.254,"lo1":-89.0895,"lo2":-89.0443,"dy":0.0025,"dx":0.0025,"nx":19,"ny":19,"refTime":"2026-05-03T03:00:00:Z","depth":0,"parameterNumber":3,"parameterNumberName":"V-component_of_WINDS"},"data":[0,0,0,4.3971,4.3973,4.4079,4.4079,4.4216,4.4218,0,0,0,0,0,0,0,0,0,0,0,4.3944,4.3945,4.3971,4.3974,4.4079,4.408,4.4216,4.4218,0,0,0,0,0,0,0,0,0,0,0,4.3944,4.3945,4.3947,4.3974,4.4079,4.408,4.4216,4.4135,0,0,0,0,0,0,0,0,0,0,4.4032,4.4012,4.3945,4.3947,4.3975,4.4079,4.408,4.4131,4.414,4.4171,0,4.4202,0,4.4212,4.4227,4.4228,0,0,0,4.397,4.4005,4.4029,4.3947,4.3976,4.4079,4.403,4.4136,4.4146,4.4183,4.4204,4.4208,4.4214,4.4228,4.4229,4.4423,4.4424,0,0,4.3964,4.3965,4.4022,4.4036,4.4023,4.4027,4.4034,4.4142,4.4164,4.4204,4.4212,4.4217,4.4229,4.423,4.4422,4.4423,0,0,0,4.395,4.3961,4.3983,4.4031,4.405,4.403,4.4038,4.4159,4.4166,4.4213,4.4218,4.423,4.4232,4.4421,4.4422,4.4476,0,0,0,4.3946,4.3953,4.3981,4.3982,4.4048,4.4106,4.4053,4.4159,4.4171,4.4217,4.423,4.4233,4.4419,4.4421,4.4472,4.45,0,0,0,4.3936,4.3952,4.3969,4.3982,4.4028,4.4105,4.4118,4.4161,4.4174,4.4228,4.4234,4.4419,4.4421,4.4468,4.4494,4.4549,0,0,0,4.3924,4.4016,4.397,4.4073,4.4027,4.4139,4.4117,4.42,4.4253,4.4231,4.442,4.4422,4.4467,4.4491,4.4545,4.4593,4.4615,0,0,4.404,4.403,4.4091,4.4052,4.4172,4.4122,4.4249,4.4296,4.4299,4.438,4.4385,4.4473,4.4494,4.4548,4.4738,4.4754,0,0,0,4.4127,4.4171,4.4202,4.4253,4.4292,4.4325,4.4353,4.4369,4.4438,4.4342,4.4509,4.4521,4.4553,4.4576,4.459,4.4616,4.4434,4.4433,4.4433,4.4291,4.4291,4.439,4.4402,4.4452,4.4478,4.4516,4.4543,4.4529,4.4568,4.4591,4.4707,4.4734,4.4744,4.4771,4.4619,4.462,4.462,4.462,4.4458,4.4517,4.4496,4.4584,4.4582,4.4655,4.4683,4.467,4.4736,4.469,4.4718,4.4665,4.4763,4.4786,4.4624,4.4623,4.4623,4.4622,4.4622,4.4563,4.4591,4.4611,4.4682,4.4736,4.4745,4.4808,4.4805,4.4802,4.483,4.4851,4.485,4.4846,4.4841,4.4841,4.4842,4.4842,4.4842,4.4843,4.4662,4.4683,4.4738,4.4785,4.4815,4.4855,4.4881,4.491,4.494,4.4932,4.4933,4.4912,4.4774,4.4737,4.4849,4.4848,4.4847,4.4846,4.4846,4.4826,4.4788,4.4873,4.4904,4.4957,4.5009,4.5004,4.5063,4.5086,4.5116,4.509,4.499,4.4978,4.4967,4.4936,4.5092,4.5092,4.5092,4.5092,4.4912,4.4907,4.4991,4.5039,4.5086,4.509,4.5181,4.5201,4.5216,4.5229,4.5207,4.5167,4.5155,4.515,4.5135,4.5106,4.5302,4.5302,4.5302,4.5011,4.501,4.509,4.5105,4.5146,4.5179,4.5264,4.5317,4.5326,4.5311,4.5239,4.523,4.5166,4.5146,4.5126,4.5102,4.505,0,0]}]]